Time,TemperatureF,DewpointF,PressureIn,WindDirection,WindDirectionDegrees,WindSpeedMPH,WindSpeedGustMPH,Humidity,HourlyPrecipIn,Conditions,Clouds,dailyrainin,SoftwareType,DateUTC
2013-03-11 00:00:00,34.5,30.2,29.71,SW,225,1.6,6.9,84,0.00,,,0.00,pywws,2013-03-11 00:00:00,
2013-03-11 00:06:00,34.5,30.2,29.71,West,270,4.5,9.8,84,0.00,,,0.00,pywws,2013-03-11 00:06:00,
2013-03-11 00:12:00,34.5,30.2,29.71,NE,45,3.1,12.1,84,0.00,,,0.00,pywws,2013-03-11 00:12:00,
2013-03-11 00:17:00,34.3,30.0,29.71,ENE,68,4.5,12.1,84,0.00,,,0.00,pywws,2013-03-11 00:17:00,
2013-03-11 00:22:00,34.3,30.0,29.71,NE,45,2.2,6.9,84,0.00,,,0.00,pywws,2013-03-11 00:22:00,
2013-03-11 00:28:00,34.3,29.7,29.71,WNW,293,1.6,6.0,83,0.00,,,0.00,pywws,2013-03-11 00:28:00,
2013-03-11 00:33:00,34.3,29.7,29.71,East,90,1.6,4.5,83,0.00,,,0.00,pywws,2013-03-11 00:33:00,
2013-03-11 00:39:00,34.3,29.7,29.72,North,0,4.5,12.1,83,0.00,,,0.00,pywws,2013-03-11 00:39:00,
2013-03-11 00:44:00,34.3,29.7,29.71,West,270,2.2,6.0,83,0.00,,,0.00,pywws,2013-03-11 00:44:00,
2013-03-11 00:50:00,34.3,29.7,29.71,East,90,3.8,6.9,83,0.00,,,0.00,pywws,2013-03-11 00:50:00,
2013-03-11 00:56:00,34.3,29.7,29.71,North,0,3.8,9.2,83,0.00,,,0.00,pywws,2013-03-11 00:56:00,
2013-03-11 01:02:00,34.2,29.3,29.71,NE,45,3.8,7.6,82,0.00,,,0.00,pywws,2013-03-11 01:02:00,
2013-03-11 01:07:00,34.2,29.3,29.71,SW,225,2.2,6.9,82,0.00,,,0.00,pywws,2013-03-11 01:07:00,
2013-03-11 01:12:00,34.2,29.3,29.70,SE,135,5.4,15.9,82,0.00,,,0.00,pywws,2013-03-11 01:12:00,
2013-03-11 01:18:00,34.0,29.1,29.71,East,90,2.2,8.3,82,0.00,,,0.00,pywws,2013-03-11 01:18:00,
2013-03-11 01:24:00,34.0,29.1,29.70,SW,225,3.8,11.4,82,0.00,,,0.00,pywws,2013-03-11 01:24:00,
2013-03-11 01:29:00,34.0,29.1,29.70,North,0,3.1,6.9,82,0.00,,,0.00,pywws,2013-03-11 01:29:00,
2013-03-11 01:35:00,34.0,29.4,29.70,SW,225,3.8,6.9,83,0.00,,,0.00,pywws,2013-03-11 01:35:00,
2013-03-11 01:40:00,33.8,29.2,29.71,NE,45,2.2,8.3,83,0.00,,,0.00,pywws,2013-03-11 01:40:00,
2013-03-11 01:46:00,33.8,29.2,29.71,NE,45,3.8,9.8,83,0.00,,,0.00,pywws,2013-03-11 01:46:00,
2013-03-11 01:52:00,33.8,29.5,29.70,NW,315,3.1,11.4,84,0.00,,,0.00,pywws,2013-03-11 01:52:00,
2013-03-11 01:58:00,33.6,29.0,29.70,NW,315,4.5,9.8,83,0.00,,,0.00,pywws,2013-03-11 01:58:00,
2013-03-11 02:03:00,33.6,29.3,29.70,NW,315,1.6,5.4,84,0.00,,,0.00,pywws,2013-03-11 02:03:00,
2013-03-11 02:08:00,33.6,29.0,29.71,East,90,1.6,3.1,83,0.00,,,0.00,pywws,2013-03-11 02:08:00,
2013-03-11 02:14:00,33.6,29.0,29.71,East,90,0.7,5.4,83,0.00,,,0.00,pywws,2013-03-11 02:14:00,
2013-03-11 02:20:00,33.4,28.8,29.70,NE,45,3.8,13.0,83,0.00,,,0.00,pywws,2013-03-11 02:20:00,
2013-03-11 02:25:00,33.4,28.8,29.70,South,180,2.2,7.6,83,0.00,,,0.00,pywws,2013-03-11 02:25:00,
2013-03-11 02:31:00,33.4,28.8,29.70,North,0,6.0,11.4,83,0.00,,,0.00,pywws,2013-03-11 02:31:00,
2013-03-11 02:37:00,33.4,28.8,29.70,East,90,1.6,5.4,83,0.00,,,0.00,pywws,2013-03-11 02:37:00,
2013-03-11 02:42:00,33.4,29.1,29.70,West,270,0.7,3.8,84,0.00,,,0.00,pywws,2013-03-11 02:42:00,
2013-03-11 02:47:00,33.4,29.1,29.70,NW,315,0.0,3.1,84,0.00,,,0.00,pywws,2013-03-11 02:47:00,
2013-03-11 02:52:00,33.4,29.1,29.70,North,0,2.2,9.2,84,0.00,,,0.00,pywws,2013-03-11 02:52:00,
2013-03-11 02:58:00,33.3,29.0,29.70,NNE,23,0.0,0.0,84,0.00,,,0.00,pywws,2013-03-11 02:58:00,
2013-03-11 03:03:00,33.3,29.0,29.70,NE,45,0.0,0.0,84,0.00,,,0.00,pywws,2013-03-11 03:03:00,
2013-03-11 03:08:00,33.3,29.0,29.70,SE,135,0.0,0.0,84,0.00,,,0.00,pywws,2013-03-11 03:08:00,
2013-03-11 03:14:00,33.3,29.0,29.70,NE,45,4.5,9.8,84,0.00,,,0.00,pywws,2013-03-11 03:14:00,
2013-03-11 03:20:00,33.3,29.0,29.70,SW,225,6.0,13.0,84,0.00,,,0.00,pywws,2013-03-11 03:20:00,
2013-03-11 03:25:00,33.1,28.8,29.70,NE,45,2.2,9.2,84,0.00,,,0.00,pywws,2013-03-11 03:25:00,
2013-03-11 03:31:00,33.1,28.8,29.69,SSE,158,2.2,7.6,84,0.00,,,0.00,pywws,2013-03-11 03:31:00,
2013-03-11 03:36:00,32.9,28.6,29.70,NE,45,4.5,9.2,84,0.00,,,0.00,pywws,2013-03-11 03:36:00,
2013-03-11 03:42:00,32.9,28.6,29.69,NW,315,2.2,8.3,84,0.00,,,0.00,pywws,2013-03-11 03:42:00,
2013-03-11 03:48:00,32.9,28.3,29.70,West,270,3.8,8.3,83,0.00,,,0.00,pywws,2013-03-11 03:48:00,
2013-03-11 03:53:00,32.9,28.3,29.70,NW,315,3.1,7.6,83,0.00,,,0.00,pywws,2013-03-11 03:53:00,
2013-03-11 03:59:00,32.9,28.3,29.70,East,90,3.1,11.4,83,0.00,,,0.00,pywws,2013-03-11 03:59:00,
2013-03-11 04:00:00,32.7,28.4,29.70,SE,135,3.1,7.6,84,0.00,,,0.00,pywws,2013-03-11 04:00:00,
2013-03-11 04:01:00,32.7,28.4,29.70,SW,225,2.2,5.4,84,0.00,,,0.00,pywws,2013-03-11 04:01:00,
2013-03-11 04:03:00,32.7,28.1,29.70,SW,225,1.6,3.8,83,0.00,,,0.00,pywws,2013-03-11 04:03:00,
2013-03-11 04:04:00,32.7,28.1,29.70,NW,315,2.2,7.6,83,0.00,,,0.00,pywws,2013-03-11 04:04:00,
2013-03-11 04:10:00,32.7,28.1,29.70,North,0,0.7,3.8,83,0.00,,,0.00,pywws,2013-03-11 04:10:00,
2013-03-11 04:16:00,32.7,28.1,29.70,East,90,6.0,11.4,83,0.00,,,0.00,pywws,2013-03-11 04:16:00,
2013-03-11 04:22:00,32.7,27.5,29.70,NE,45,3.8,7.6,81,0.00,,,0.00,pywws,2013-03-11 04:22:00,
2013-03-11 04:27:00,32.7,27.5,29.70,SE,135,2.2,9.2,81,0.00,,,0.00,pywws,2013-03-11 04:27:00,
2013-03-11 04:32:00,32.7,27.5,29.70,East,90,6.0,11.4,81,0.00,,,0.00,pywws,2013-03-11 04:32:00,
2013-03-11 04:38:00,32.7,27.5,29.70,NE,45,3.8,9.2,81,0.00,,,0.00,pywws,2013-03-11 04:38:00,
2013-03-11 04:44:00,32.5,27.4,29.70,SW,225,0.7,3.1,81,0.00,,,0.00,pywws,2013-03-11 04:44:00,
2013-03-11 04:49:00,32.5,27.4,29.70,North,0,3.1,7.6,81,0.00,,,0.00,pywws,2013-03-11 04:49:00,
2013-03-11 04:55:00,32.4,27.2,29.70,SW,225,1.6,6.0,81,0.00,,,0.00,pywws,2013-03-11 04:55:00,
2013-03-11 05:00:00,32.4,27.2,29.70,North,0,4.5,7.6,81,0.00,,,0.00,pywws,2013-03-11 05:00:00,
2013-03-11 05:06:00,32.2,27.0,29.69,NE,45,4.5,10.7,81,0.00,,,0.00,pywws,2013-03-11 05:06:00,
2013-03-11 05:12:00,32.2,27.3,29.70,ENE,68,3.1,10.7,82,0.00,,,0.00,pywws,2013-03-11 05:12:00,
2013-03-11 05:17:00,32.0,27.4,29.69,East,90,1.6,5.4,83,0.00,,,0.00,pywws,2013-03-11 05:17:00,
2013-03-11 05:23:00,32.0,27.4,29.70,SW,225,2.2,6.0,83,0.00,,,0.00,pywws,2013-03-11 05:23:00,
2013-03-11 05:28:00,32.0,27.4,29.70,NW,315,5.4,12.1,83,0.00,,,0.00,pywws,2013-03-11 05:28:00,
2013-03-11 05:34:00,32.0,27.4,29.70,NW,315,3.1,6.0,83,0.00,,,0.00,pywws,2013-03-11 05:34:00,
2013-03-11 05:40:00,32.0,27.4,29.70,North,0,2.2,6.9,83,0.00,,,0.00,pywws,2013-03-11 05:40:00,
2013-03-11 05:45:00,32.0,27.7,29.70,North,0,0.7,3.8,84,0.00,,,0.00,pywws,2013-03-11 05:45:00,
2013-03-11 05:51:00,32.0,27.7,29.70,East,90,2.2,4.5,84,0.00,,,0.00,pywws,2013-03-11 05:51:00,
2013-03-11 05:56:00,32.0,27.7,29.70,West,270,3.1,5.4,84,0.00,,,0.00,pywws,2013-03-11 05:56:00,
2013-03-11 06:02:00,32.0,27.7,29.70,SE,135,3.1,6.9,84,0.00,,,0.00,pywws,2013-03-11 06:02:00,
2013-03-11 06:08:00,32.0,27.7,29.70,East,90,3.1,9.2,84,0.00,,,0.00,pywws,2013-03-11 06:08:00,
2013-03-11 06:13:00,32.0,27.7,29.70,NE,45,4.5,9.8,84,0.00,,,0.00,pywws,2013-03-11 06:13:00,
2013-03-11 06:19:00,32.0,27.7,29.70,West,270,3.1,6.9,84,0.00,,,0.00,pywws,2013-03-11 06:19:00,
2013-03-11 06:24:00,31.8,27.8,29.70,East,90,4.5,9.8,85,0.00,,,0.00,pywws,2013-03-11 06:24:00,
2013-03-11 06:30:00,31.6,27.9,29.70,SE,135,3.1,9.2,86,0.00,,,0.00,pywws,2013-03-11 06:30:00,
2013-03-11 06:36:00,31.8,27.5,29.70,North,0,6.0,14.5,84,0.00,,,0.00,pywws,2013-03-11 06:36:00,
2013-03-11 06:41:00,32.0,27.4,29.70,NE,45,6.0,12.1,83,0.00,,,0.00,pywws,2013-03-11 06:41:00,
2013-03-11 06:47:00,32.0,27.1,29.70,South,180,3.1,8.3,82,0.00,,,0.00,pywws,2013-03-11 06:47:00,
2013-03-11 06:53:00,32.0,27.1,29.70,West,270,2.2,9.8,82,0.00,,,0.00,pywws,2013-03-11 06:53:00,
2013-03-11 06:58:00,32.0,27.4,29.70,SE,135,4.5,7.6,83,0.00,,,0.00,pywws,2013-03-11 06:58:00,
2013-03-11 07:03:00,32.0,27.4,29.70,NW,315,3.1,12.1,83,0.00,,,0.00,pywws,2013-03-11 07:03:00,
2013-03-11 07:08:00,32.0,27.4,29.70,NW,315,1.6,3.8,83,0.00,,,0.00,pywws,2013-03-11 07:08:00,
2013-03-11 07:14:00,32.0,27.1,29.70,North,0,0.7,3.1,82,0.00,,,0.00,pywws,2013-03-11 07:14:00,
2013-03-11 07:20:00,32.0,26.8,29.70,NE,45,6.9,13.6,81,0.00,,,0.00,pywws,2013-03-11 07:20:00,
2013-03-11 07:25:00,32.2,26.7,29.70,SSE,158,5.4,11.4,80,0.00,,,0.00,pywws,2013-03-11 07:25:00,
2013-03-11 07:31:00,32.4,26.6,29.70,North,0,6.0,11.4,79,0.00,,,0.00,pywws,2013-03-11 07:31:00,
2013-03-11 07:37:00,32.4,26.6,29.70,SE,135,1.6,6.0,79,0.00,,,0.00,pywws,2013-03-11 07:37:00,
2013-03-11 07:42:00,32.4,26.9,29.70,South,180,3.1,6.9,80,0.00,,,0.00,pywws,2013-03-11 07:42:00,
2013-03-11 07:48:00,32.4,26.6,29.70,NW,315,2.2,5.4,79,0.00,,,0.00,pywws,2013-03-11 07:48:00,
2013-03-11 07:53:00,32.4,26.9,29.71,NE,45,2.2,7.6,80,0.00,,,0.00,pywws,2013-03-11 07:53:00,
2013-03-11 07:59:00,32.4,26.6,29.71,NNE,23,2.2,6.9,79,0.00,,,0.00,pywws,2013-03-11 07:59:00,
2013-03-11 08:04:00,32.4,26.3,29.71,North,0,3.8,8.3,78,0.00,,,0.00,pywws,2013-03-11 08:04:00,
2013-03-11 08:10:00,32.5,26.5,29.71,NE,45,5.4,12.1,78,0.00,,,0.00,pywws,2013-03-11 08:10:00,
2013-03-11 08:16:00,32.5,26.1,29.71,East,90,1.6,6.0,77,0.00,,,0.00,pywws,2013-03-11 08:16:00,
2013-03-11 08:21:00,32.5,26.1,29.71,East,90,3.8,9.2,77,0.00,,,0.00,pywws,2013-03-11 08:21:00,
2013-03-11 08:27:00,32.5,26.1,29.71,NW,315,4.5,8.3,77,0.00,,,0.00,pywws,2013-03-11 08:27:00,
2013-03-11 08:32:00,32.5,26.1,29.71,NE,45,3.8,7.6,77,0.00,,,0.00,pywws,2013-03-11 08:32:00,
2013-03-11 08:38:00,32.5,25.5,29.72,North,0,8.3,17.5,75,0.00,,,0.00,pywws,2013-03-11 08:38:00,
2013-03-11 08:44:00,32.9,25.5,29.72,North,0,4.5,10.7,74,0.00,,,0.00,pywws,2013-03-11 08:44:00,
2013-03-11 08:49:00,32.9,24.9,29.71,NW,315,3.8,9.8,72,0.00,,,0.00,pywws,2013-03-11 08:49:00,
2013-03-11 08:55:00,32.9,24.9,29.72,SE,135,6.9,15.2,72,0.00,,,0.00,pywws,2013-03-11 08:55:00,
2013-03-11 09:00:00,32.7,24.7,29.72,SW,225,3.1,6.9,72,0.00,,,0.00,pywws,2013-03-11 09:00:00,
2013-03-11 09:06:00,32.9,24.9,29.72,SE,135,2.2,6.9,72,0.00,,,0.00,pywws,2013-03-11 09:06:00,
2013-03-11 09:11:00,33.1,25.1,29.71,West,270,3.8,8.3,72,0.00,,,0.00,pywws,2013-03-11 09:11:00,
2013-03-11 09:16:00,32.9,24.9,29.72,NE,45,4.5,13.0,72,0.00,,,0.00,pywws,2013-03-11 09:16:00,
2013-03-11 09:22:00,32.7,25.0,29.72,SSE,158,2.2,12.1,73,0.00,,,0.00,pywws,2013-03-11 09:22:00,
2013-03-11 09:28:00,32.5,25.5,29.72,South,180,1.6,3.8,75,0.00,,,0.00,pywws,2013-03-11 09:28:00,
2013-03-11 09:33:00,32.0,26.2,29.72,NE,45,1.6,3.8,79,0.00,,,0.00,pywws,2013-03-11 09:33:00,
2013-03-11 09:39:00,32.0,26.8,29.72,NE,45,2.2,5.4,81,0.00,,,0.00,pywws,2013-03-11 09:39:00,
2013-03-11 09:44:00,32.2,27.0,29.72,NNE,23,0.7,3.1,81,0.00,,,0.00,pywws,2013-03-11 09:44:00,
2013-03-11 09:50:00,32.4,26.6,29.72,SW,225,3.8,6.0,79,0.00,,,0.00,pywws,2013-03-11 09:50:00,
2013-03-11 09:56:00,32.5,26.8,29.72,NE,45,3.8,9.2,79,0.00,,,0.00,pywws,2013-03-11 09:56:00,
2013-03-11 10:01:00,32.2,27.9,29.72,NW,315,3.1,6.9,84,0.00,,,0.00,pywws,2013-03-11 10:01:00,
2013-03-11 10:07:00,32.0,28.3,29.72,ENE,68,4.5,9.8,86,0.00,,,0.00,pywws,2013-03-11 10:07:00,
2013-03-11 10:12:00,32.2,28.2,29.72,SW,225,4.5,7.6,85,0.00,,,0.00,pywws,2013-03-11 10:12:00,
2013-03-11 10:18:00,33.1,28.5,29.72,East,90,3.1,10.7,83,0.00,,,0.00,pywws,2013-03-11 10:18:00,
2013-03-11 10:24:00,33.3,27.5,29.72,North,0,6.0,12.1,79,0.00,,,0.00,pywws,2013-03-11 10:24:00,
2013-03-11 10:29:00,33.1,27.3,29.72,NE,45,6.0,15.2,79,0.00,,,0.00,pywws,2013-03-11 10:29:00,
2013-03-11 10:35:00,33.4,27.9,29.72,North,0,3.8,9.8,80,0.00,,,0.00,pywws,2013-03-11 10:35:00,
2013-03-11 10:40:00,34.2,28.6,29.72,NE,45,3.1,6.0,80,0.00,,,0.00,pywws,2013-03-11 10:40:00,
2013-03-11 10:46:00,34.2,28.0,29.72,SW,225,2.2,5.4,78,0.00,,,0.00,pywws,2013-03-11 10:46:00,
2013-03-11 10:51:00,34.0,27.9,29.72,NW,315,0.7,3.8,78,0.00,,,0.00,pywws,2013-03-11 10:51:00,
2013-03-11 10:57:00,33.6,27.2,29.73,NW,315,3.8,9.2,77,0.00,,,0.00,pywws,2013-03-11 10:57:00,
2013-03-11 11:02:00,33.3,27.2,29.72,NE,45,5.4,10.7,78,0.00,,,0.00,pywws,2013-03-11 11:02:00,
2013-03-11 11:08:00,32.7,27.2,29.73,North,0,3.1,9.2,80,0.00,,,0.00,pywws,2013-03-11 11:08:00,
2013-03-11 11:13:00,32.4,27.5,29.73,East,90,3.1,15.2,82,0.00,,,0.00,pywws,2013-03-11 11:13:00,
2013-03-11 11:19:00,32.2,27.3,29.73,NE,45,3.1,6.9,82,0.00,,,0.00,pywws,2013-03-11 11:19:00,
2013-03-11 11:24:00,32.0,27.7,29.73,East,90,3.8,7.6,84,0.00,,,0.00,pywws,2013-03-11 11:24:00,
2013-03-11 11:30:00,32.2,27.6,29.73,South,180,4.5,13.0,83,0.00,,,0.00,pywws,2013-03-11 11:30:00,
2013-03-11 11:36:00,32.5,28.0,29.73,South,180,3.8,9.8,83,0.00,,,0.00,pywws,2013-03-11 11:36:00,
2013-03-11 11:41:00,32.7,28.1,29.73,SW,225,3.1,6.0,83,0.00,,,0.00,pywws,2013-03-11 11:41:00,
2013-03-11 11:47:00,32.4,27.8,29.73,North,0,3.8,9.2,83,0.00,,,0.00,pywws,2013-03-11 11:47:00,
2013-03-11 11:53:00,32.5,28.3,29.73,NE,45,5.4,13.0,84,0.00,,,0.00,pywws,2013-03-11 11:53:00,
2013-03-11 11:59:00,32.9,28.0,29.73,SE,135,4.5,13.6,82,0.00,,,0.00,pywws,2013-03-11 11:59:00,
2013-03-11 12:05:00,33.1,27.9,29.73,North,0,3.1,6.9,81,0.00,,,0.00,pywws,2013-03-11 12:05:00,
2013-03-11 12:10:00,32.7,27.2,29.72,WNW,293,6.0,13.0,80,0.00,,,0.00,pywws,2013-03-11 12:10:00,
2013-03-11 12:16:00,32.4,27.2,29.73,West,270,3.8,9.2,81,0.00,,,0.00,pywws,2013-03-11 12:16:00,
2013-03-11 12:21:00,32.4,27.8,29.73,SE,135,9.2,19.0,83,0.00,,,0.00,pywws,2013-03-11 12:21:00,
2013-03-11 12:27:00,32.4,28.4,29.73,NE,45,4.5,12.1,85,0.00,,,0.00,pywws,2013-03-11 12:27:00,
2013-03-11 12:32:00,32.4,28.4,29.73,NE,45,3.1,6.0,85,0.00,,,0.00,pywws,2013-03-11 12:32:00,
2013-03-11 12:38:00,32.5,28.3,29.72,East,90,3.1,7.6,84,0.00,,,0.00,pywws,2013-03-11 12:38:00,
2013-03-11 12:44:00,32.9,28.3,29.73,NE,45,1.6,7.6,83,0.00,,,0.00,pywws,2013-03-11 12:44:00,
2013-03-11 12:49:00,32.9,28.0,29.73,NE,45,6.0,12.1,82,0.00,,,0.00,pywws,2013-03-11 12:49:00,
2013-03-11 12:55:00,32.9,27.7,29.72,NE,45,4.5,6.9,81,0.00,,,0.00,pywws,2013-03-11 12:55:00,
2013-03-11 13:00:00,32.0,27.7,29.73,West,270,3.8,9.8,84,0.00,,,0.00,pywws,2013-03-11 13:00:00,
2013-03-11 13:06:00,31.6,27.7,29.73,North,0,4.5,13.0,85,0.00,,,0.00,pywws,2013-03-11 13:06:00,
2013-03-11 13:12:00,32.0,26.8,29.73,SE,135,4.5,13.6,81,0.00,,,0.00,pywws,2013-03-11 13:12:00,
2013-03-11 13:17:00,32.2,26.4,29.73,SW,225,3.8,12.1,79,0.00,,,0.00,pywws,2013-03-11 13:17:00,
2013-03-11 13:23:00,32.2,26.1,29.72,East,90,5.4,11.4,78,0.00,,,0.00,pywws,2013-03-11 13:23:00,
2013-03-11 13:28:00,32.4,25.7,29.72,SW,225,5.4,11.4,76,0.00,,,0.00,pywws,2013-03-11 13:28:00,
2013-03-11 13:34:00,32.9,26.2,29.72,SE,135,2.2,6.0,76,0.00,,,0.00,pywws,2013-03-11 13:34:00,
2013-03-11 13:40:00,33.3,26.2,29.73,ENE,68,3.8,8.3,75,0.00,,,0.00,pywws,2013-03-11 13:40:00,
2013-03-11 13:45:00,33.3,24.9,29.72,East,90,4.5,9.8,71,0.00,,,0.00,pywws,2013-03-11 13:45:00,
2013-03-11 13:51:00,33.3,23.5,29.72,SE,135,6.9,11.4,67,0.00,,,0.00,pywws,2013-03-11 13:51:00,
2013-03-11 13:56:00,33.4,23.7,29.72,ENE,68,3.8,9.8,67,0.00,,,0.00,pywws,2013-03-11 13:56:00,
2013-03-11 14:02:00,33.4,23.7,29.72,NE,45,3.8,9.2,67,0.00,,,0.00,pywws,2013-03-11 14:02:00,
2013-03-11 14:08:00,32.7,24.0,29.72,NW,315,6.9,14.5,70,0.00,,,0.00,pywws,2013-03-11 14:08:00,
2013-03-11 14:13:00,32.0,25.0,29.72,WNW,293,6.0,15.2,75,0.00,,,0.00,pywws,2013-03-11 14:13:00,
2013-03-11 14:19:00,32.0,25.3,29.72,South,180,3.8,7.6,76,0.00,,,0.00,pywws,2013-03-11 14:19:00,
2013-03-11 14:24:00,32.7,25.4,29.71,NE,45,2.2,7.6,74,0.00,,,0.00,pywws,2013-03-11 14:24:00,
2013-03-11 14:30:00,33.4,24.4,29.71,NE,45,6.0,15.9,69,0.00,,,0.00,pywws,2013-03-11 14:30:00,
2013-03-11 14:36:00,33.4,23.0,29.71,SE,135,6.9,12.1,65,0.00,,,0.00,pywws,2013-03-11 14:36:00,
2013-03-11 14:41:00,33.4,23.3,29.71,SE,135,2.2,5.4,66,0.00,,,0.00,pywws,2013-03-11 14:41:00,
2013-03-11 14:47:00,34.0,23.5,29.71,NW,315,3.8,7.6,65,0.00,,,0.00,pywws,2013-03-11 14:47:00,
2013-03-11 14:52:00,34.2,22.9,29.70,East,90,5.4,12.1,63,0.00,,,0.00,pywws,2013-03-11 14:52:00,
2013-03-11 14:58:00,34.0,22.7,29.71,NNW,338,4.5,12.1,63,0.00,,,0.00,pywws,2013-03-11 14:58:00,
2013-03-11 15:04:00,34.0,22.7,29.70,NW,315,6.0,16.8,63,0.00,,,0.00,pywws,2013-03-11 15:04:00,
2013-03-11 15:09:00,33.8,22.6,29.70,NE,45,6.9,14.5,63,0.00,,,0.00,pywws,2013-03-11 15:09:00,
2013-03-11 15:15:00,33.4,22.6,29.70,South,180,8.3,17.5,64,0.00,,,0.00,pywws,2013-03-11 15:15:00,
2013-03-11 15:20:00,33.3,22.8,29.70,North,0,7.6,15.2,65,0.00,,,0.00,pywws,2013-03-11 15:20:00,
2013-03-11 15:26:00,32.9,23.2,29.70,SW,225,4.5,15.2,67,0.00,,,0.00,pywws,2013-03-11 15:26:00,
2013-03-11 15:32:00,32.9,23.9,29.70,WNW,293,6.9,15.9,69,0.00,,,0.00,pywws,2013-03-11 15:32:00,
2013-03-11 15:37:00,32.9,24.2,29.71,WNW,293,3.8,7.6,70,0.00,,,0.00,pywws,2013-03-11 15:37:00,
2013-03-11 15:43:00,32.7,24.4,29.70,NE,45,8.3,15.9,71,0.00,,,0.00,pywws,2013-03-11 15:43:00,
2013-03-11 15:48:00,32.5,24.9,29.70,SW,225,3.1,8.3,73,0.00,,,0.00,pywws,2013-03-11 15:48:00,
2013-03-11 15:54:00,32.2,24.5,29.71,NW,315,0.7,3.1,73,0.00,,,0.00,pywws,2013-03-11 15:54:00,
2013-03-11 16:00:00,32.2,24.2,29.70,North,0,6.0,16.8,72,0.00,,,0.00,pywws,2013-03-11 16:00:00,
2013-03-11 16:06:00,32.0,24.0,29.70,SW,225,5.4,12.1,72,0.00,,,0.00,pywws,2013-03-11 16:06:00,
2013-03-11 16:12:00,32.0,23.7,29.70,NW,315,5.4,15.2,71,0.00,,,0.00,pywws,2013-03-11 16:12:00,
2013-03-11 16:17:00,32.0,23.7,29.70,NE,45,4.5,9.8,71,0.00,,,0.00,pywws,2013-03-11 16:17:00,
2013-03-11 16:23:00,31.8,23.5,29.70,East,90,3.1,8.3,71,0.00,,,0.00,pywws,2013-03-11 16:23:00,
2013-03-11 16:28:00,32.0,23.0,29.70,ENE,68,8.3,15.2,69,0.00,,,0.00,pywws,2013-03-11 16:28:00,
2013-03-11 16:34:00,32.0,22.3,29.71,North,0,8.3,16.8,67,0.00,,,0.00,pywws,2013-03-11 16:34:00,
2013-03-11 16:40:00,31.8,22.1,29.70,NW,315,4.5,8.3,67,0.00,,,0.00,pywws,2013-03-11 16:40:00,
2013-03-11 16:45:00,31.8,22.1,29.70,NW,315,4.5,8.3,67,0.00,,,0.00,pywws,2013-03-11 16:45:00,
2013-03-11 16:51:00,31.8,22.5,29.70,NW,315,3.8,10.7,68,0.00,,,0.00,pywws,2013-03-11 16:51:00,
2013-03-11 16:56:00,31.8,22.8,29.70,SE,135,3.8,8.3,69,0.00,,,0.00,pywws,2013-03-11 16:56:00,
2013-03-11 17:02:00,31.8,22.8,29.70,East,90,5.4,12.1,69,0.00,,,0.00,pywws,2013-03-11 17:02:00,
2013-03-11 17:08:00,31.6,22.7,29.70,East,90,5.4,12.1,69,0.00,,,0.00,pywws,2013-03-11 17:08:00,
2013-03-11 17:13:00,31.5,22.5,29.70,East,90,3.8,6.9,69,0.00,,,0.00,pywws,2013-03-11 17:13:00,
2013-03-11 17:19:00,31.5,22.1,29.70,North,0,3.1,9.2,68,0.00,,,0.00,pywws,2013-03-11 17:19:00,
2013-03-11 17:25:00,31.5,21.8,29.70,SSE,158,7.6,15.2,67,0.00,,,0.00,pywws,2013-03-11 17:25:00,
2013-03-11 17:30:00,31.5,21.4,29.70,East,90,5.4,13.0,66,0.00,,,0.00,pywws,2013-03-11 17:30:00,
2013-03-11 17:36:00,31.5,21.4,29.70,NW,315,3.8,13.0,66,0.00,,,0.00,pywws,2013-03-11 17:36:00,
2013-03-11 17:43:00,31.5,21.8,29.70,NE,45,3.1,11.4,67,0.00,,,0.00,pywws,2013-03-11 17:43:00,
2013-03-11 17:48:00,31.5,22.1,29.70,West,270,3.1,8.3,68,0.00,,,0.00,pywws,2013-03-11 17:48:00,
2013-03-11 17:54:00,31.5,22.1,29.71,WNW,293,7.6,15.9,68,0.00,,,0.00,pywws,2013-03-11 17:54:00,
2013-03-11 18:00:00,31.3,22.0,29.70,West,270,3.8,7.6,68,0.00,,,0.00,pywws,2013-03-11 18:00:00,
2013-03-11 18:05:00,31.3,22.3,29.70,South,180,2.2,5.4,69,0.00,,,0.00,pywws,2013-03-11 18:05:00,
2013-03-11 18:11:00,31.5,22.8,29.71,East,90,7.6,19.0,70,0.00,,,0.00,pywws,2013-03-11 18:11:00,
2013-03-11 18:16:00,31.3,23.0,29.71,SW,225,5.4,19.7,71,0.00,,,0.00,pywws,2013-03-11 18:16:00,
2013-03-11 18:22:00,31.3,23.0,29.72,SW,225,3.1,12.1,71,0.00,,,0.00,pywws,2013-03-11 18:22:00,
2013-03-11 18:28:00,31.3,23.0,29.71,NE,45,3.1,6.9,71,0.00,,,0.00,pywws,2013-03-11 18:28:00,
2013-03-11 18:33:00,31.3,23.3,29.71,West,270,3.1,7.6,72,0.00,,,0.00,pywws,2013-03-11 18:33:00,
2013-03-11 18:39:00,31.1,23.5,29.71,East,90,3.8,15.2,73,0.00,,,0.00,pywws,2013-03-11 18:39:00,
2013-03-11 18:44:00,31.1,23.5,29.71,North,0,6.0,13.0,73,0.00,,,0.00,pywws,2013-03-11 18:44:00,
2013-03-11 18:50:00,31.1,23.5,29.72,NE,45,3.1,13.0,73,0.00,,,0.00,pywws,2013-03-11 18:50:00,
2013-03-11 18:56:00,30.9,23.3,29.72,West,270,4.5,11.4,73,0.00,,,0.00,pywws,2013-03-11 18:56:00,
2013-03-11 19:01:00,30.9,23.0,29.72,North,0,3.8,8.3,72,0.00,,,0.00,pywws,2013-03-11 19:01:00,
2013-03-11 19:07:00,30.9,23.0,29.72,NW,315,3.1,10.7,72,0.00,,,0.00,pywws,2013-03-11 19:07:00,
2013-03-11 19:12:00,30.9,23.0,29.72,NE,45,6.0,11.4,72,0.00,,,0.00,pywws,2013-03-11 19:12:00,
2013-03-11 19:18:00,30.9,23.0,29.72,South,180,5.4,15.2,72,0.00,,,0.00,pywws,2013-03-11 19:18:00,
2013-03-11 19:24:00,30.9,23.3,29.72,NW,315,3.8,8.3,73,0.00,,,0.00,pywws,2013-03-11 19:24:00,
2013-03-11 19:29:00,30.9,23.6,29.72,NE,45,3.1,13.0,74,0.00,,,0.00,pywws,2013-03-11 19:29:00,
2013-03-11 19:35:00,30.7,23.5,29.72,NE,45,3.1,9.2,74,0.00,,,0.00,pywws,2013-03-11 19:35:00,
2013-03-11 19:40:00,30.7,23.8,29.71,SE,135,3.8,10.7,75,0.00,,,0.00,pywws,2013-03-11 19:40:00,
2013-03-11 19:46:00,30.7,23.5,29.72,SE,135,3.8,8.3,74,0.00,,,0.00,pywws,2013-03-11 19:46:00,
2013-03-11 19:52:00,30.7,23.5,29.72,South,180,1.6,5.4,74,0.00,,,0.00,pywws,2013-03-11 19:52:00,
2013-03-11 19:58:00,30.7,23.5,29.72,North,0,4.5,11.4,74,0.00,,,0.00,pywws,2013-03-11 19:58:00,
2013-03-11 20:03:00,30.7,23.5,29.72,NE,45,3.1,9.8,74,0.00,,,0.00,pywws,2013-03-11 20:03:00,
2013-03-11 20:08:00,30.7,23.8,29.72,NW,315,5.4,13.0,75,0.00,,,0.00,pywws,2013-03-11 20:08:00,
2013-03-11 20:14:00,30.6,23.6,29.71,SW,225,5.4,15.2,75,0.00,,,0.00,pywws,2013-03-11 20:14:00,
2013-03-11 20:20:00,30.4,23.4,29.72,South,180,3.1,7.6,75,0.00,,,0.00,pywws,2013-03-11 20:20:00,
2013-03-11 20:25:00,30.4,23.4,29.72,West,270,3.8,7.6,75,0.00,,,0.00,pywws,2013-03-11 20:25:00,
2013-03-11 20:31:00,30.4,23.4,29.72,East,90,3.8,10.7,75,0.00,,,0.00,pywws,2013-03-11 20:31:00,
2013-03-11 20:36:00,30.4,23.4,29.72,NW,315,3.1,4.5,75,0.00,,,0.00,pywws,2013-03-11 20:36:00,
2013-03-11 20:42:00,30.4,23.4,29.72,NNW,338,3.1,8.3,75,0.00,,,0.00,pywws,2013-03-11 20:42:00,
2013-03-11 20:47:00,30.4,23.4,29.72,NE,45,6.9,18.3,75,0.00,,,0.00,pywws,2013-03-11 20:47:00,
2013-03-11 20:52:00,30.2,23.6,29.72,South,180,3.1,9.8,76,0.00,,,0.00,pywws,2013-03-11 20:52:00,
2013-03-11 20:58:00,30.2,23.6,29.72,East,90,6.0,18.3,76,0.00,,,0.00,pywws,2013-03-11 20:58:00,
2013-03-11 21:03:00,30.2,23.2,29.72,NW,315,3.8,13.6,75,0.00,,,0.00,pywws,2013-03-11 21:03:00,
2013-03-11 21:08:00,30.2,23.6,29.72,SW,225,3.1,6.0,76,0.00,,,0.00,pywws,2013-03-11 21:08:00,
2013-03-11 21:14:00,30.2,23.2,29.72,NE,45,3.8,6.9,75,0.00,,,0.00,pywws,2013-03-11 21:14:00,
2013-03-11 21:20:00,30.2,23.2,29.72,SW,225,2.2,6.0,75,0.00,,,0.00,pywws,2013-03-11 21:20:00,
2013-03-11 21:26:00,30.0,23.1,29.72,SE,135,2.2,10.7,75,0.00,,,0.00,pywws,2013-03-11 21:26:00,
2013-03-11 21:32:00,30.0,23.4,29.72,North,0,3.8,11.4,76,0.00,,,0.00,pywws,2013-03-11 21:32:00,
2013-03-11 21:37:00,30.0,23.1,29.72,SE,135,5.4,14.5,75,0.00,,,0.00,pywws,2013-03-11 21:37:00,
2013-03-11 21:43:00,30.2,23.2,29.72,East,90,3.1,12.1,75,0.00,,,0.00,pywws,2013-03-11 21:43:00,
2013-03-11 21:48:00,30.0,23.4,29.72,NW,315,4.5,9.2,76,0.00,,,0.00,pywws,2013-03-11 21:48:00,
2013-03-11 21:54:00,30.0,23.4,29.72,West,270,3.1,6.0,76,0.00,,,0.00,pywws,2013-03-11 21:54:00,
2013-03-11 22:00:00,29.8,23.2,29.72,SW,225,3.8,13.6,76,0.00,,,0.00,pywws,2013-03-11 22:00:00,
2013-03-11 22:05:00,29.8,22.9,29.72,NW,315,3.8,9.8,75,0.00,,,0.00,pywws,2013-03-11 22:05:00,
2013-03-11 22:11:00,30.0,22.8,29.72,East,90,5.4,15.2,74,0.00,,,0.00,pywws,2013-03-11 22:11:00,
2013-03-11 22:16:00,30.0,22.4,29.72,South,180,3.1,10.7,73,0.00,,,0.00,pywws,2013-03-11 22:16:00,
2013-03-11 22:22:00,30.0,22.1,29.72,North,0,4.5,9.2,72,0.00,,,0.00,pywws,2013-03-11 22:22:00,
2013-03-11 22:27:00,30.0,22.1,29.72,SE,135,2.2,7.6,72,0.00,,,0.00,pywws,2013-03-11 22:27:00,
2013-03-11 22:33:00,30.0,22.1,29.72,SW,225,5.4,11.4,72,0.00,,,0.00,pywws,2013-03-11 22:33:00,
2013-03-11 22:39:00,30.0,22.1,29.72,NW,315,5.4,13.0,72,0.00,,,0.00,pywws,2013-03-11 22:39:00,
2013-03-11 22:44:00,29.8,22.3,29.72,NNW,338,3.8,8.3,73,0.00,,,0.00,pywws,2013-03-11 22:44:00,
2013-03-11 22:50:00,29.8,22.6,29.72,North,0,3.1,8.3,74,0.00,,,0.00,pywws,2013-03-11 22:50:00,
2013-03-11 22:56:00,29.8,22.9,29.72,West,270,3.1,9.8,75,0.00,,,0.00,pywws,2013-03-11 22:56:00,
2013-03-11 23:01:00,29.8,23.2,29.72,NW,315,3.1,7.6,76,0.00,,,0.00,pywws,2013-03-11 23:01:00,
2013-03-11 23:08:00,29.8,23.2,29.72,NW,315,6.9,14.5,76,0.00,,,0.00,pywws,2013-03-11 23:08:00,
2013-03-11 23:13:00,29.8,22.9,29.72,NE,45,4.5,10.7,75,0.00,,,0.00,pywws,2013-03-11 23:13:00,
2013-03-11 23:19:00,29.8,23.2,29.73,NW,315,3.1,7.6,76,0.00,,,0.00,pywws,2013-03-11 23:19:00,
2013-03-11 23:24:00,29.8,23.2,29.73,North,0,6.0,11.4,76,0.00,,,0.00,pywws,2013-03-11 23:24:00,
2013-03-11 23:32:00,30.0,23.4,29.73,East,90,1.6,6.9,76,0.00,,,0.00,pywws,2013-03-11 23:32:00,
2013-03-11 23:38:00,29.8,23.2,29.73,South,180,1.6,3.8,76,0.00,,,0.00,pywws,2013-03-11 23:38:00,
2013-03-11 23:44:00,29.8,23.2,29.73,SE,135,4.5,11.4,76,0.00,,,0.00,pywws,2013-03-11 23:44:00,
2013-03-11 23:49:00,30.0,23.4,29.72,NE,45,3.8,7.6,76,0.00,,,0.00,pywws,2013-03-11 23:49:00,
2013-03-11 23:55:00,30.0,23.4,29.72,NE,45,3.1,6.9,76,0.00,,,0.00,pywws,2013-03-11 23:55:00,